Brooksville, FL

7:13 PM EST on February 19, 2017 (GMT -0500)
Hernando County

Weather History for KBKV - May, 2013

Change the Weather History Date:

Saturday, May 11, 2013

  Actual Average Record
Temperature  
Mean Temperature 76 °F -  
Max Temperature 88 °F 85 °F 93 °F (2002)
Min Temperature 64 °F 58 °F 52 °F (2001)
Cooling Degree Days 11    
Growing Degree Days 26 (Base 50)    
Moisture  
Dew Point 68 °F    
Average Humidity 81    
Maximum Humidity 97    
Minimum Humidity 55    
Precipitation  
Precipitation 0.36 in - - ()
Sea Level Pressure  
Sea Level Pressure 30.05 in    
Wind  
Wind Speed 5 mph (SW)    
Max Wind Speed 25 mph    
Max Gust Speed 37 mph    
Visibility 9 miles    
Events Fog , Rain    
Averages and records for this station are not official NWS values.
T = Trace of Precipitation, MM = Missing Value Source: NWS Daily Summary

Daily Weather History Graph

Daily Weather History Graph

Search for Another Location

Airport or City:

Trip Planner

Search our weather history database for the weather conditions in past years. The results will help you decide how hot, cold, wet, or windy it might be!

Date:

Astronomy

May. 11, 2013 Rise Set
Actual Time 6:41 AM EDT 8:11 PM EDT
Civil Twilight 6:16 AM EDT 8:36 PM EDT
Nautical Twilight 5:45 AM EDT 9:07 PM EDT
Astronomical Twilight 5:14 AM EDT 9:38 PM EDT
Moon 7:50 AM EDT (5/11) 9:47 PM EDT (5/11)
Length of Visible Light 14h 20m
Length of Day
13h 29m
Waxing Crescent, 3% of the Moon is Illuminated
May 11
Waxing Crescent
May 18
First Quarter
May 25
Full
May 31
Last Quarter
Jun 8
New

Hourly Weather History & Observations

Time (EDT) Temp. Heat Index Dew Point Humidity Pressure Visibility Wind Dir Wind Speed Gust Speed Precip Events Conditions
12:53 AM 66.9 °F - 64.9 °F 93% 30.08 in 10.0 mi Calm Calm - N/A   Clear
1:53 AM 68.0 °F - 66.0 °F 93% 30.07 in 9.0 mi Calm Calm - N/A   Mostly Cloudy
2:46 AM 66.2 °F - 64.4 °F 94% 30.07 in 10.0 mi Calm Calm - N/A   Scattered Clouds
2:53 AM 68.0 °F - 66.0 °F 93% 30.06 in 10.0 mi Calm Calm - N/A   Mostly Cloudy
3:53 AM 66.0 °F - 64.0 °F 93% 30.03 in 9.0 mi Calm Calm - N/A   Clear
4:53 AM 64.9 °F - 64.0 °F 97% 30.02 in 10.0 mi Calm Calm - N/A   Clear
5:53 AM 66.0 °F - 64.0 °F 93% 30.03 in 7.0 mi Calm Calm - N/A   Clear
6:53 AM 66.0 °F - 64.9 °F 96% 30.04 in 6.0 mi Calm Calm - N/A   Clear
7:53 AM 69.1 °F - 66.9 °F 93% 30.05 in 9.0 mi South 3.5 mph - N/A   Clear
8:53 AM 75.0 °F - 71.1 °F 87% 30.05 in 10.0 mi SSE 4.6 mph - N/A   Clear
9:04 AM 77.0 °F - 71.6 °F 83% 30.06 in 10.0 mi South 6.9 mph - N/A   Partly Cloudy
9:49 AM 80.6 °F 84.6 °F 71.6 °F 74% 30.07 in 10.0 mi South 8.1 mph - N/A   Mostly Cloudy
9:53 AM 80.1 °F 83.6 °F 71.1 °F 74% 30.07 in 10.0 mi South 10.4 mph - N/A   Mostly Cloudy
10:30 AM 80.6 °F 83.9 °F 69.8 °F 70% 30.07 in 10.0 mi South 8.1 mph - N/A   Mostly Cloudy
10:37 AM 80.6 °F 84.6 °F 71.6 °F 74% 30.08 in 10.0 mi SW 8.1 mph - N/A   Mostly Cloudy
10:44 AM 80.6 °F 84.6 °F 71.6 °F 74% 30.07 in 10.0 mi SSW 4.6 mph - N/A   Mostly Cloudy
10:53 AM 82.0 °F 85.9 °F 70.0 °F 67% 30.06 in 10.0 mi SSW 10.4 mph - N/A   Mostly Cloudy
11:13 AM 82.4 °F 86.3 °F 69.8 °F 66% 30.06 in 10.0 mi South 8.1 mph - N/A   Mostly Cloudy
11:27 AM 84.2 °F 88.4 °F 69.8 °F 62% 30.06 in 10.0 mi SW 8.1 mph - N/A   Mostly Cloudy
11:53 AM 84.0 °F 87.8 °F 69.1 °F 61% 30.05 in 10.0 mi SW 9.2 mph - N/A   Scattered Clouds
12:53 PM 87.1 °F 91.3 °F 69.1 °F 55% 30.04 in 10.0 mi WSW 12.7 mph - N/A   Scattered Clouds
1:53 PM 88.0 °F 92.9 °F 70.0 °F 55% 30.04 in 10.0 mi WSW 16.1 mph 21.9 mph N/A   Partly Cloudy
2:53 PM 87.1 °F 92.0 °F 70.0 °F 57% 30.02 in 10.0 mi West 15.0 mph 21.9 mph N/A   Scattered Clouds
3:53 PM 84.9 °F 88.2 °F 68.0 °F 57% 30.02 in 10.0 mi West 17.3 mph - N/A   Scattered Clouds
4:53 PM 82.9 °F 85.8 °F 68.0 °F 60% 30.02 in 10.0 mi West 12.7 mph - N/A   Clear
5:53 PM 81.0 °F 84.9 °F 71.1 °F 72% 30.04 in 10.0 mi West 15.0 mph - N/A   Clear
6:27 PM 78.8 °F - 71.6 °F 78% 30.04 in 10.0 mi West 12.7 mph 20.7 mph N/A   Mostly Cloudy
6:38 PM 78.8 °F - 71.6 °F 78% 30.04 in 1.2 mi WNW 13.8 mph 25.3 mph 0.13 in Rain Heavy Rain
6:46 PM 69.8 °F - 66.2 °F 88% 30.04 in 0.5 mi NNW 25.3 mph 36.8 mph 0.28 in Fog , Rain Light Rain
6:50 PM 69.8 °F - 66.2 °F 88% 30.05 in 1.8 mi NNW 15.0 mph 36.8 mph 0.31 in Rain Rain
6:53 PM 70.0 °F - 66.9 °F 90% 30.06 in 3.0 mi NNW 11.5 mph 34.5 mph 0.33 in Rain Rain
7:33 PM 69.8 °F - 68.0 °F 94% 30.04 in 10.0 mi NNE 5.8 mph - 0.02 in   Scattered Clouds
7:53 PM 70.0 °F - 68.0 °F 93% 30.04 in 10.0 mi NNE 3.5 mph - 0.02 in   Clear
8:53 PM 69.1 °F - 68.0 °F 96% 30.03 in 10.0 mi South 4.6 mph - N/A   Clear
9:53 PM 69.1 °F - 68.0 °F 96% 30.04 in 10.0 mi Calm Calm - N/A   Clear
10:53 PM 68.0 °F - 66.9 °F 96% 30.04 in 10.0 mi South 3.5 mph - 0.01 in   Clear
11:53 PM 68.0 °F - 66.0 °F 93% 30.04 in 10.0 mi South 3.5 mph - N/A   Clear